Regional Weather Roundup
Issued by NWS

Home | Current Version | Previous Version | Graphics & Text | Print | Product List | Glossary On
Versions: 1 2 3 4 5 6 7 8 9 10 11 12 13 14 15 16 17 18 19 20 21 22 23 24 25 26 27 28 29 30 31 32 33 34 35 36 37 38 39 40 41 42 43 44 45 46 47 48 49 50
000
ASUS43 KTOP 250859
RWRKS

WEATHER ROUNDUP FOR KANSAS
NATIONAL WEATHER SERVICE GOODLAND KS
400 AM CDT SAT OCT 25 2014

NOTE:  "FAIR" INDICATES FEW OR NO CLOUDS BELOW 12,000 FEET WITH NO
SIGNIFICANT WEATHER AND/OR OBSTRUCTIONS TO VISIBILITY.

KSZ001>006-013>018-027>032-041>047-251000-
NORTHWEST KANSAS

CITY           SKY/WX    TMP DP  RH WIND       PRES   REMARKS
GOODLAND       CLEAR     47  34  60 W3        30.12F
HAYS           CLEAR     52  45  76 NW6       30.04S
HILL CITY      CLEAR     46  41  82 CALM      30.06R
RUSSELL        CLEAR     56  53  90 NW3       30.03S
$$

KSZ061>065-074>080-084>089-251000-
SOUTHWEST KANSAS

CITY           SKY/WX    TMP DP  RH WIND       PRES   REMARKS
DODGE CITY     CLEAR     57  48  72 SW6       30.07S
ELKHART          N/A     61  38  42 SW8         N/A
GARDEN CITY    CLEAR     54  43  66 W6        30.08S
GREAT BEND     CLEAR     55  50  82 S5        30.04S
LIBERAL        CLEAR     52  39  62 NW5       30.11R
$$

KSZ066>073-081>083-090>101-251000-
SOUTHEAST KANSAS

CITY           SKY/WX    TMP DP  RH WIND       PRES   REMARKS
CHANUTE        CLEAR     59  58  96 S3        30.03S FOG
COFFEYVILLE    CLEAR     60  59  96 S3        30.04R FOG
HUTCHINSON     FOG       55  53  93 CALM      30.03S VSB 1/4
NEWTON         CLEAR     61  54  77 SW5       30.05S
PARSONS        CLEAR     60  60 100 S3        30.05S FOG
WICHITA INTL   CLEAR     59  57  93 SE5       30.03S
WICHITA JABRA  FOG       59  58  96 CALM      30.03S VSB 1
WICHITA MCCONL CLEAR     61  61 100 SE2       30.04S
WINFIELD       CLEAR     61  59  93 S3        30.03F
$$

KSZ007>012-019>026-033>040-048>060-102>105-251000-
NORTHEAST KANSAS

CITY           SKY/WX    TMP DP  RH WIND       PRES   REMARKS
CONCORDIA      CLEAR     55  51  86 SE3       30.03S
EMPORIA        CLEAR     58  58 100 CALM      30.03S FOG
LAWRENCE       FOG       52  51  97 NW3       30.01F VSB 1/4
MANHATTAN      FOG       52  52 100 CALM      30.02S VSB 1/4
OLATHE IND     CLEAR     59  58  96 SW6       30.02F FOG
OLATHE EXE     CLEAR     60  59  96 CALM      30.01S FOG
SALINA         CLEAR     58  56  93 S5        30.03S FOG
TOPEKA BILLARD FOG       55  55 100 S3        30.01F VSB 1
TOPEKA FORBES  CLEAR     57  55  93 SW5       30.02S FOG
$$



USA.gov is the U.S. government's official web portal to all federal, state and local government web resources and services.